SCP
0 0 0 0 0 0 0 0 0 0 0 0 0 0 0 0 0 0 0 0 0 0 0 0 0 0 0 0 0 0 0 0 1 1 1 0 0 0
0 0 0 0 0 0 0 0 0 0 0 0 0 0 0 0 0 0 0 0 0 0 0 0 0 0 0 0 0 0 0 0 0 1 1 0 0 0
0 0 0 0 0 0 0 0 0 0 0 0 0 0 0 0 0 0 0 0 0 0 0 0 0 0 0 0 0 0 0 0 0 0 0 0 0 0
0 0 0 0 0 0 0 0 0 0 0 0 0 0 0 0 0 0 0 0 0 0 0 0 0 0 0 0 0 0 0 0 0 0 0 0 0 0
0 0 0 0 0 0 0 0 0 0 0 0 0 0 0 0 0 0 0 0 0 0 0 0 0 0 0 0 0 0 0 0 0 0 0 0 0 0
0 0 0 0 0 0 0 0 0 0 0 0 0 0 0 0 0 0 0 0 0 0 0 0 0 0 0 0 0 0 0 0 0 0 0 0 0 0
0 0 0 0 0 0 0 0 0 0 0 0 0 0 0 0 0 0 0 0 0 0 0 0 0 0 0 0 0 0 0 0 0 0 0 0 0 0
0 0 0 0 0 0 0 0 0 0 0 0 0 0 0 0 0 0 0 0 0 0 0 0 0 0 0 0 0 0 0 0 0 0 0 0 0 0
0 0 0 0 0 0 0 0 0 0 0 0 0 0 0 0 0 0 0 0 0 0 0 0 0 0 0 0 0 0 0 0 0 0 0 0 0 0
0 0 0 0 0 0 0 0 0 0 0 0 0 0 0 0 0 0 0 0 0 0 0 0 0 0 0 0 0 0 0 0 0 0 0 0 0 0
0 0 0 0 0 0 0 0 0 0 0 0 0 0 0 0 0 0 0 0 0 0 0 0 0 0 0 0 0 0 0 0 0 0 0 0 0 0
0 0 0 0 0 0 0 0 0 0 0 0 0 0 0 0 0 0 0 0 0 0 0 0 0 0 0 0 0 0 0 0 0 0 0 0 0 0
0 0 0 0 0 0 0 0 0 0 0 0 0 0 0 0 0 0 0 0 0 0 0 0 0 0 0 0 0 0 0 0 0 0 0 0 0 0
0 0 0 0 0 0 0 0 0 0 0 0 0 0 0 0 0 0 0 0 0 0 0 0 0 0 0 0 0 0 0 0 0 0 0 0 0 0
0 0 0 0 0 0 0 0 0 0 0 0 0 0 0 0 0 0 0 0 0 0 0 0 0 0 0 0 0 0 0 0 0 0 0 0 0 0
0 0 0 0 0 0 0 0 0 0 0 0 0 0 0 0 0 0 0 0 0 0 0 0 0 0 0 0 0 0 0 0 0 0 0 0 0 0
0 0 0 0 0 0 0 0 0 0 0 0 0 0 0 0 0 0 0 0 0 0 0 0 0 0 0 0 0 0 0 0 0 0 0 0 0 0
0 0 0 0 0 0 0 0 0 0 0 0 0 0 0 0 0 0 0 0 0 0 0 0 0 0 0 0 0 0 0 0 0 0 0 0 0 0
0 0 0 0 0 0 0 0 0 0 0 0 0 0 0 0 0 0 0 0 0 0 0 0 0 0 0 0 0 0 0 0 0 0 0 0 0 0
0 0 0 0 0 0 0 0 0 0 0 0 0 0 0 0 0 0 0 0 0 0 0 0 0 0 0 0 0 0 0 0 0 0 0 0 0 0
0 0 0 0 0 0 0 0 0 0 0 0 0 0 0 0 0 0 0 0 0 0 0 0 0 0 0 0 0 0 0 0 0 0 0 0 0 0
0 0 0 0 0 0 0 0 0 0 0 0 0 0 0 0 0 0 0 0 0 0 0 0 0 0 0 0 0 0 0 0 0 0 0 0 0 0
0 0 0 0 0 0 0 0 0 0 0 0 0 0 0 0 0 0 0 0 0 0 0 0 0 0 0 0 0 0 0 0 0 0 0 0 0 0
Wind_Speed
15 17 15 13 13 13 13 13 14 17 18 17 14 13 11 12 14 15 16 22 26 27 28 29 29 30 31 31 31 31 30 28 27 26 26 26 25 24
13 16 16 13 13 13 13 13 14 15 19 15 12 11 10 10 15 16 16 22 24 26 26 27 28 29 30 30 30 31 30 29 28 28 27 27 26 26
16 17 18 17 14 13 13 13 14 14 18 19 14 13 16 15 13 13 14 15 14 23 25 26 27 28 28 29 30 31 31 30 29 29 28 28 27 27
17 17 18 14 17 15 13 15 14 15 16 22 17 13 16 15 15 15 13 12 13 18 23 25 26 26 27 28 28 29 30 29 29 28 28 28 28 27
17 17 17 17 17 15 15 15 13 13 14 17 17 13 12 12 13 14 16 14 14 15 20 23 25 26 26 27 28 28 28 28 28 28 28 28 28 27
16 16 17 17 18 17 15 15 14 14 14 15 15 13 12 12 11 11 12 12 12 12 15 17 20 25 26 27 27 27 26 27 28 28 27 27 26 27
17 16 16 19 22 19 14 13 13 13 13 13 14 13 12 10 11 10 12 11 12 11 11 12 12 13 15 21 25 26 26 27 28 28 28 27 26 26
15 15 16 18 21 25 27 26 22 16 14 13 13 14 14 13 11 11 11 11 11 9 11 12 11 12 11 11 18 24 26 27 27 27 27 27 27 26
15 14 12 13 18 15 18 23 23 25 24 17 16 16 15 13 12 13 13 12 13 9 8 10 10 11 10 12 20 22 24 25 25 26 26 26 26 26
15 14 15 15 14 15 13 14 15 16 18 14 12 13 13 12 11 12 12 13 13 10 9 9 9 10 10 10 17 22 23 24 24 25 25 25 25 26
14 14 15 15 19 22 16 14 15 14 17 22 23 20 22 22 16 10 10 10 11 10 10 9 8 9 9 10 12 20 23 24 24 25 25 25 24 24
12 12 17 18 20 22 15 13 14 13 12 12 14 16 15 16 20 12 9 10 9 8 9 9 8 7 7 9 9 10 13 20 24 25 25 25 24 16
11 10 10 19 21 22 20 13 15 15 11 11 10 10 9 8 9 9 8 9 10 8 6 9 8 8 7 5 7 9 9 10 12 15 21 24 25 21
12 11 12 20 22 22 17 16 19 17 8 8 8 8 8 8 7 8 8 9 9 9 7 9 7 8 8 7 6 6 8 9 9 10 10 17 21 25
12 18 21 22 21 15 16 18 15 9 7 8 8 8 7 6 6 6 7 7 8 8 8 10 9 8 8 8 7 7 6 7 9 9 10 10 11 12
12 14 19 18 15 14 13 11 8 7 8 7 7 7 6 5 5 5 6 6 6 7 9 11 11 11 9 10 8 8 7 6 7 9 9 10 10 11
13 9 8 8 8 7 7 7 7 7 7 6 6 6 5 5 5 5 5 6 6 7 7 7 9 9 10 9 9 9 9 8 8 9 10 10 11 12
14 9 8 8 8 8 8 8 7 6 6 6 6 6 6 6 5 5 5 6 7 7 7 7 7 6 6 8 12 10 10 9 9 10 10 11 12 11
10 8 8 8 8 8 8 8 7 6 6 6 6 6 6 5 5 5 6 6 7 7 6 6 7 8 9 10 10 15 12 9 9 9 10 11 12 11
7 8 8 8 8 8 8 8 7 6 6 6 6 6 5 5 5 6 6 7 6 6 6 6 8 9 11 9 7 7 16 12 10 10 10 10 11 13
8 8 8 8 8 8 8 8 8 7 6 6 6 6 5 6 6 6 6 8 8 7 8 8 8 9 6 5 6 7 9 15 15 10 10 10 11 11
9 9 9 9 8 8 8 8 7 7 7 6 6 6 6 6 7 7 7 6 7 7 8 6 4 6 6 8 9 9 8 9 13 19 20 17 11 10
9 9 9 9 8 8 8 8 9 7 7 7 6 6 6 6 6 6 7 7 6 7 6 5 5 6 7 8 9 9 10 10 9 10 12 18 24 26
Wind_Direction
259 257 255 254 252 251 250 250 258 271 272 269 262 249 241 243 244 244 246 247 246 244 243 241 241 240 240 240 240 240 240 238 237 236 237 238 240 242
264 263 261 259 256 253 250 250 247 255 269 270 269 264 251 248 248 249 250 251 249 249 247 244 242 241 240 240 239 238 238 237 236 236 236 237 239 240
269 266 264 263 261 257 253 250 248 247 259 269 266 264 257 251 249 249 252 251 250 247 248 247 245 243 241 241 240 238 237 235 235 235 236 238 239 239
274 272 269 268 263 261 257 253 251 248 253 266 269 266 262 257 253 251 250 250 251 250 248 247 246 244 243 242 241 239 237 236 235 235 236 238 239 240
277 274 273 271 267 263 259 257 255 253 252 260 267 265 262 256 254 251 251 251 250 249 248 246 245 246 245 244 242 240 238 236 236 236 236 238 239 240
276 273 270 268 267 267 264 260 257 255 254 256 262 263 258 252 247 247 248 244 246 245 245 245 245 245 244 243 242 241 239 237 235 234 235 237 238 239
275 271 268 266 264 265 262 259 255 254 253 254 257 258 254 246 240 239 244 247 246 239 240 239 239 238 236 240 241 240 239 237 235 233 235 236 236 237
277 274 272 271 271 270 270 268 261 254 252 253 257 255 254 249 244 238 239 242 245 229 232 237 230 235 233 233 235 235 236 236 235 234 234 235 235 235
282 280 279 277 279 274 274 275 273 269 262 258 257 256 258 254 247 241 235 235 241 236 229 240 232 234 232 233 235 235 236 235 235 235 235 235 235 236
285 283 282 281 278 277 271 268 267 267 267 264 259 260 259 257 247 243 243 243 246 240 225 240 235 236 234 232 234 234 236 236 236 237 238 237 236 238
286 282 281 278 279 280 276 270 270 268 268 263 260 260 258 257 250 238 232 232 238 230 217 227 235 236 234 232 230 231 235 237 237 237 236 237 237 238
288 283 280 280 282 283 279 272 272 272 268 268 264 263 263 259 257 241 229 232 234 232 208 209 222 221 235 231 228 224 228 233 234 235 235 235 236 237
292 289 285 287 287 288 286 279 276 279 271 266 263 259 255 249 246 239 226 227 231 231 200 194 211 211 222 229 220 220 221 224 226 231 233 233 235 233
295 292 289 291 290 290 288 283 284 285 276 269 263 258 254 249 242 237 228 226 228 230 214 201 209 208 215 225 227 215 216 220 223 226 225 230 234 236
294 294 296 298 298 294 289 289 289 281 273 269 266 263 258 256 248 239 229 224 225 223 215 209 212 213 217 225 228 220 215 219 222 226 227 227 228 230
298 296 296 295 292 289 289 289 283 277 274 268 270 271 266 254 245 238 233 223 224 223 212 209 212 215 221 226 229 226 217 214 213 222 227 231 232 232
308 301 297 296 292 290 287 286 283 279 276 270 266 267 260 251 245 234 226 221 223 221 210 204 211 217 226 227 229 227 224 225 223 221 226 233 234 233
312 301 301 300 298 298 295 290 284 277 274 273 267 261 258 252 245 231 224 225 228 226 217 204 199 204 216 230 226 231 229 229 228 226 227 235 239 236
305 298 298 299 299 297 294 290 287 283 278 271 268 263 257 249 242 233 226 227 230 229 221 206 203 209 221 231 218 212 224 228 228 228 229 235 244 243
297 295 296 296 295 294 292 289 285 280 272 268 266 263 256 249 244 237 230 230 232 230 226 215 214 217 227 239 239 217 215 225 229 233 235 240 248 254
296 294 293 293 292 291 290 286 282 278 273 269 264 261 255 249 247 242 238 235 234 232 232 229 225 226 237 238 241 233 223 223 230 236 239 244 251 252
293 293 293 291 290 288 288 286 280 274 269 263 262 259 253 248 246 244 241 237 234 235 239 237 214 213 219 228 239 245 242 234 236 242 244 243 245 247
292 293 292 290 287 286 284 282 279 274 269 265 261 257 252 249 247 244 241 239 238 237 236 232 225 223 227 234 243 247 248 245 245 246 245 244 248 255